ACA471 CYOW-CYYZ

Flight info

Callsign ACA471
Flight time N/A
Altitude 28000
Route TUKIR RAGID6
Aircraft A321/M-SDE3FGHIRWY/LB1

Departure

Time 2026-05-01 15:17
Airport Ottawa Macdonald-Cartier International Airport (CYOW)

Arrival

Time N/A
Airport Toronto Pearson International Airport (CYYZ)
Time Latitude Longitude Altitude Speed Heading
2026-05-01 14:45 45.32163 -75.66816 380 ft 0 kts 36°
2026-05-01 15:07 45.32161 -75.66817 380 ft 2 kts 36°
2026-05-01 15:07 45.32140 -75.66839 380 ft 4 kts 36°
2026-05-01 15:07 45.32120 -75.66863 380 ft 4 kts 54°
2026-05-01 15:07 45.32110 -75.66896 380 ft 4 kts 89°
2026-05-01 15:08 45.32114 -75.66924 380 ft 1 kts 126°
2026-05-01 15:08 45.32117 -75.66929 380 ft 0 kts 126°
2026-05-01 15:10 45.32098 -75.66892 380 ft 4 kts 126°
2026-05-01 15:10 45.32074 -75.66846 380 ft 7 kts 126°
2026-05-01 15:11 45.32046 -75.66792 380 ft 6 kts 128°
2026-05-01 15:11 45.31958 -75.66745 380 ft 8 kts 162°
2026-05-01 15:11 45.31916 -75.66712 380 ft 6 kts 136°
2026-05-01 15:12 45.31880 -75.66640 380 ft 10 kts 125°
2026-05-01 15:12 45.31828 -75.66493 380 ft 7 kts 108°
2026-05-01 15:12 45.31798 -75.66419 382 ft 9 kts 126°
2026-05-01 15:13 45.31589 -75.66016 382 ft 17 kts 126°
2026-05-01 15:14 45.31468 -75.65781 385 ft 12 kts 126°
2026-05-01 15:14 45.31417 -75.65684 384 ft 12 kts 126°
2026-05-01 15:14 45.31328 -75.65515 384 ft 9 kts 130°
2026-05-01 15:15 45.31176 -75.65452 381 ft 13 kts 174°
2026-05-01 15:15 45.31111 -75.65551 382 ft 0 kts 305°
2026-05-01 15:16 45.31308 -75.65934 386 ft 83 kts 306°
2026-05-01 15:16 45.32427 -75.68082 583 ft 164 kts 306°
2026-05-01 15:17 45.33760 -75.70659 2037 ft 162 kts 304°
2026-05-01 15:18 45.34588 -75.76057 2828 ft 228 kts 262°
2026-05-01 15:18 45.34159 -75.78349 3256 ft 248 kts 256°
2026-05-01 15:19 45.32752 -75.85526 5887 ft 253 kts 256°
2026-05-01 15:19 45.31798 -75.90393 7499 ft 258 kts 256°
2026-05-01 15:19 45.31315 -75.92861 8267 ft 261 kts 256°
2026-05-01 15:20 45.30333 -75.97888 9815 ft 267 kts 255°
2026-05-01 15:20 45.29838 -76.00431 10303 ft 279 kts 255°
2026-05-01 15:20 45.29319 -76.03199 10447 ft 301 kts 256°
2026-05-01 15:21 45.28761 -76.06165 10748 ft 316 kts 255°
2026-05-01 15:21 45.28175 -76.09192 11367 ft 320 kts 255°
2026-05-01 15:21 45.27567 -76.12247 12054 ft 323 kts 255°
2026-05-01 15:21 45.26947 -76.15328 12756 ft 325 kts 255°
2026-05-01 15:22 45.25661 -76.21533 14090 ft 330 kts 251°
2026-05-01 15:22 45.24661 -76.24480 14670 ft 334 kts 239°
2026-05-01 15:22 45.23238 -76.27124 15247 ft 339 kts 231°
2026-05-01 15:23 45.21691 -76.29656 15820 ft 341 kts 231°
2026-05-01 15:23 45.20134 -76.32222 16383 ft 344 kts 231°
2026-05-01 15:23 45.18572 -76.34809 16932 ft 347 kts 231°
2026-05-01 15:23 45.16998 -76.37413 17479 ft 349 kts 231°
2026-05-01 15:24 45.15407 -76.40037 18012 ft 352 kts 231°
2026-05-01 15:24 45.13802 -76.42670 18540 ft 354 kts 231°
2026-05-01 15:24 45.12188 -76.45317 19013 ft 356 kts 231°
2026-05-01 15:24 45.10580 -76.47954 19449 ft 358 kts 231°
2026-05-01 15:25 45.08939 -76.50643 19870 ft 361 kts 231°
2026-05-01 15:25 45.07292 -76.53344 20271 ft 364 kts 231°
2026-05-01 15:25 45.05632 -76.56063 20668 ft 366 kts 231°
2026-05-01 15:25 45.03955 -76.58806 21059 ft 369 kts 231°
2026-05-01 15:26 45.02264 -76.61567 21446 ft 371 kts 231°
2026-05-01 15:26 45.00565 -76.64340 21829 ft 374 kts 231°
2026-05-01 15:26 44.98854 -76.67130 22201 ft 376 kts 231°
2026-05-01 15:26 44.97152 -76.69898 22593 ft 379 kts 231°
2026-05-01 15:27 44.95398 -76.72747 22991 ft 381 kts 231°
2026-05-01 15:27 44.93653 -76.75578 23372 ft 384 kts 231°
2026-05-01 15:27 44.91914 -76.78399 23709 ft 386 kts 231°
2026-05-01 15:28 44.88360 -76.84162 24382 ft 390 kts 231°
2026-05-01 15:28 44.86575 -76.87058 24701 ft 392 kts 231°
2026-05-01 15:28 44.84779 -76.89962 25051 ft 394 kts 230°
2026-05-01 15:29 44.81205 -76.95862 25709 ft 395 kts 236°
2026-05-01 15:29 44.79774 -76.99110 26049 ft 395 kts 242°
2026-05-01 15:29 44.77059 -77.05876 26721 ft 398 kts 242°
2026-05-01 15:30 44.74311 -77.12689 27345 ft 401 kts 241°
2026-05-01 15:31 44.68778 -77.26302 28006 ft 392 kts 241°
2026-05-01 15:31 44.66070 -77.32926 28010 ft 389 kts 241°
2026-05-01 15:32 44.63397 -77.39472 28000 ft 388 kts 241°
2026-05-01 15:32 44.60706 -77.46053 28005 ft 388 kts 241°
2026-05-01 15:34 44.52631 -77.65676 28004 ft 387 kts 241°